Location: Ceske Budejovice
(48.9830°N, 14.4670°E)
Time: 15:29:10
(UTC+02:00)

ISS - Visible Passes

Search period start: 29 September 2023 00:00
Search period end: 09 October 2023 00:00
Orbit: 413 x 421 km, 51.6° (Epoch: 29 September)

Date Brightness Start Highest point End Pass type
(mag) Time Alt. Az. Time Alt. Az. Time Alt. Az.
29 Sep -3.8 19:16:49 10° WNW 19:20:10 79° NNE 19:23:30 10° ESE visible
29 Sep -2.1 20:53:49 10° W 20:56:37 26° SW 20:56:37 26° SW visible
30 Sep -2.7 20:05:20 10° WNW 20:08:28 39° SSW 20:10:19 20° SSE visible
01 Oct -3.3 19:16:53 10° WNW 19:20:10 58° SSW 19:23:28 10° SE visible
01 Oct -1.0 20:54:57 10° WSW 20:56:21 12° SW 20:56:57 12° SSW visible
02 Oct -1.4 20:05:43 10° W 20:08:08 19° SW 20:10:33 10° S visible
03 Oct -1.9 19:16:54 10° W 19:19:48 28° SW 19:22:42 10° SSE visible
05 Oct -0.8 19:17:26 10° WSW 19:19:02 13° SW 19:20:39 10° SSW visible
